CAPE
3430 3389 2886 2888 2669 2168 2564 2346 2797 2772 2984 3547 3306 3436 3206 2497 2800 2405 2207 2008 1862 1487
3522 3139 2690 2737 2693 2265 3986 2469 4298 3055 3371 3619 3809 3980 3724 3008 2917 3047 2799 2657 2348 1738
3729 3473 3161 3556 3103 2922 2819 3863 4151 3540 3295 3380 3670 3880 3644 3052 2803 3108 2954 2040 2310 1926
3884 3793 3583 3228 3936 3372 3839 4145 4232 4034 4087 4109 4007 3648 3604 3370 2886 2959 2718 2278 2281 1781
3936 3833 3731 3647 3439 3771 3522 3547 4146 4319 3899 4085 3875 3872 3610 2646 2783 2521 2314 2211 2234 2045
3848 3885 3595 3638 3564 3606 3802 3863 3642 3925 4130 3872 3842 3859 3571 3462 3109 2664 2553 2142 2094 2093
3517 3450 3500 3590 3704 3456 3828 4004 3852 3911 3790 3823 3955 3731 3525 3270 3102 2957 2618 2280 2281 2496
3274 3114 3417 3832 4030 4104 4088 3893 3938 3931 4076 4025 3618 3221 3620 3565 3280 2990 2408 2567 2580 2708
4178 3976 4488 4467 4375 4533 4342 4459 4034 3973 3968 4014 3316 2860 2835 3123 3183 3098 2859 2694 2554 2612
4934 4446 4684 4931 4881 4527 4443 4466 4480 4078 4179 4105 3789 2825 2742 2643 2955 3079 2930 2955 2542 2514
5129 4733 4719 4868 4868 4686 4622 4523 4555 4296 4251 4282 3957 2888 2437 2587 2798 2980 2953 2601 2239 2238
4965 4990 4761 4787 4804 4758 4740 4599 4538 4309 4304 4396 4083 2761 2092 2183 2526 2487 2689 2795 2780 2557
4844 5035 4869 4849 4862 4822 4744 4512 4393 4194 4321 3673 4092 2555 2356 2084 2348 2209 2297 2768 2937 2024
4885 4991 4995 5057 5021 4877 4704 4347 4316 4192 4423 4141 3730 2586 2363 1949 2322 2123 2380 2238 2559 2974
CIN
-7 -3 -20 -19 -16 -18 -13 -34 -42 -60 -43 -16 -14 -7 -13 -18 -9 -21 -18 -23 -14 -18
-17 -24 -37 -40 -31 -35 -14 -11 -25 -88 -39 -22 -11 -5 -3 -3 -6 -8 -8 -6 -7 -7
-19 -24 -33 -7 -18 -29 -29 -14 -23 -25 -35 -20 -13 -6 -8 -4 -12 -9 -5 -15 -6 -3
-16 -23 -27 -27 -2 -19 -5 -9 -12 -21 -7 -8 -6 -8 -5 -4 -6 -4 -3 -8 -6 -3
-10 -16 -25 -35 -28 -6 -25 -16 -5 -8 -13 -4 -2 -3 -5 -6 -1 -8 -5 -5 -4 -3
-20 -14 -36 -41 -48 -24 -13 -12 -3 -3 -4 -4 -1 -3 -8 -3 -3 -3 -2 -8 -8 -5
-41 -43 -37 -32 -33 -34 -19 -5 -4 -2 -5 -2 -1 -2 -5 -4 -4 -3 -8 -8 -2 -2
-76 -58 -44 -35 -17 -9 -7 -13 -9 -3 -2 -4 -4 -3 -4 -4 0 -5 -8 -1 -4 -2
-75 -85 -27 -27 -38 -14 -8 -8 -10 -3 -3 -3 -12 -35 -21 -12 -2 -1 -2 0 -5 -6
-48 -95 -50 -22 -17 -30 -20 -4 -5 -7 -3 -4 -12 -42 -40 -23 -6 -3 -4 -2 -8 -6
-22 -62 -79 -36 -9 -8 -6 -3 -2 -5 -3 -1 -8 -48 -67 -33 -15 -5 -6 -15 -27 -9
-12 -12 -32 -46 -32 -13 0 -1 -2 -1 -2 -2 -6 -43 -100 -82 -29 -16 -4 -6 -10 -8
-8 -6 -4 -6 -11 -13 -2 0 0 -2 -3 -5 -2 -22 -35 -59 -31 -52 -32 -5 -9 -18
-6 -4 -3 -2 -1 -1 -1 -6 -5 -4 -4 -6 -11 -23 -5 -30 -15 -9 -7 -12 -14 -14
Wind_Speed
10 7 6 5 5 7 8 11 10 14 14 13 12 11 11 11 14 17 16 17 19 21
14 10 7 7 7 4 5 5 12 16 14 12 10 10 10 10 10 14 15 14 18 20
17 16 11 7 6 7 4 5 8 11 14 13 11 11 12 9 5 13 12 14 19 21
16 16 15 12 7 5 3 8 9 12 10 11 11 10 9 7 7 11 11 14 17 21
15 13 15 15 12 10 11 9 9 11 10 7 5 4 5 6 6 9 10 12 16 18
17 15 14 14 14 12 11 10 12 11 10 8 6 3 2 4 6 7 10 11 11 12
14 17 15 11 12 13 13 12 11 8 9 8 7 7 7 7 9 12 15 19 13 8
12 12 13 10 7 7 6 10 11 11 9 11 9 9 10 11 14 17 15 14 11 8
14 12 10 12 14 11 10 11 12 9 10 12 13 15 19 17 18 17 15 15 13 13
24 18 16 17 16 16 15 14 15 12 11 13 14 21 25 25 21 20 17 14 12 11
14 21 21 21 21 18 20 18 16 17 14 15 16 24 26 24 17 18 17 15 16 12
21 17 24 24 26 25 22 23 24 22 20 20 18 26 30 28 21 15 15 17 15 16
25 21 22 27 27 29 29 27 28 29 26 25 26 25 26 27 20 20 19 18 20 19
28 26 28 32 34 33 34 34 32 33 34 36 33 33 29 26 23 19 20 21 22 20
Wind_Direction
353 327 338 312 255 277 251 257 275 309 299 296 295 303 299 292 300 305 302 303 299 290
345 350 329 319 292 248 245 262 266 301 304 296 300 294 291 295 306 307 301 304 312 297
8 16 17 334 331 310 274 259 254 303 320 318 304 299 304 314 282 315 319 314 327 328
11 13 16 29 14 3 325 317 316 305 299 299 299 294 307 327 306 318 335 333 326 347
2 12 14 17 23 34 31 31 1 338 341 327 315 334 341 3 5 349 349 347 340 339
1 8 26 17 21 16 21 23 34 17 14 22 38 54 14 349 334 344 332 319 320 335
1 7 17 28 3 17 3 3 6 18 360 3 357 341 330 325 352 347 333 327 311 310
347 1 357 3 4 356 346 351 350 350 359 346 345 343 332 320 319 319 328 348 356 331
314 321 315 316 318 317 320 323 333 334 326 325 328 325 327 328 324 329 326 331 343 354
304 308 305 301 306 314 317 312 312 318 313 309 311 308 331 333 323 327 332 332 315 329
301 309 307 301 297 300 300 304 302 301 297 299 301 301 312 318 322 314 323 318 321 321
274 284 295 306 299 290 289 293 290 287 290 294 290 301 307 308 312 313 315 315 310 312
278 272 288 287 288 285 284 281 282 286 283 278 278 290 300 307 302 307 306 301 302 329
272 275 280 282 279 274 278 278 277 278 280 285 287 287 297 306 295 290 295 297 301 301